Powrót do katalogu

ATLAS 5 CENTAUR DEB

AktywnyHEO
NORAD 47096·DEBRIS·🇺🇸 United States

Wystrzelony Sep 17, 2014 z Cape Canaveral Space Force Station

Loading…

Następne Przeloty (najbliższe 24 godziny)

TLE

ŚwieżeSource: Space-Track

Epoka: Sep 13, 2026, 11:01 UTC

1 47096U 14055DE  26256.45963632 -.00000054  00000-0  00000+0 0  9999
2 47096  19.5135 158.3038 4831390 138.4114 270.6228  1.79155131 38708

Śledź ATLAS 5 CENTAUR DEB w czasie rzeczywistym z AllMySat

Download on the App Store